Year,Month,Day,Hour,Minute,Value (Times are PST for temperature in C)
2018,03,08,00,00,4.10
2018,03,08,00,01,4.10
2018,03,08,00,02,4.10
2018,03,08,00,03,4.10
2018,03,08,00,04,4.10
2018,03,08,00,05,4.10
2018,03,08,00,06,4.10
2018,03,08,00,07,4.10
2018,03,08,00,08,4.10
2018,03,08,00,09,4.10
2018,03,08,00,10,4.10
2018,03,08,00,11,4.10
2018,03,08,00,12,4.20
2018,03,08,00,13,4.10
2018,03,08,00,14,4.20
2018,03,08,00,15,4.10
2018,03,08,00,16,4.20
2018,03,08,00,17,4.10
2018,03,08,00,18,4.10
2018,03,08,00,19,4.10
2018,03,08,00,20,4.10
2018,03,08,00,21,4.20
2018,03,08,00,22,4.20
2018,03,08,00,23,4.20
2018,03,08,00,24,4.20
2018,03,08,00,25,4.20
2018,03,08,00,26,4.20
2018,03,08,00,27,4.20
2018,03,08,00,28,4.20
2018,03,08,00,29,4.20
2018,03,08,00,30,4.20
2018,03,08,00,31,4.20
2018,03,08,00,32,4.20
2018,03,08,00,33,4.20
2018,03,08,00,34,4.20
2018,03,08,00,35,4.20
2018,03,08,00,36,4.20
2018,03,08,00,37,4.20
2018,03,08,00,38,4.20
2018,03,08,00,39,4.20
2018,03,08,00,40,4.10
2018,03,08,00,41,4.10
2018,03,08,00,42,4.10
2018,03,08,00,43,4.10
2018,03,08,00,44,4.10
2018,03,08,00,45,4.10
2018,03,08,00,46,4.10
2018,03,08,00,47,4.10
2018,03,08,00,48,4.00
2018,03,08,00,49,4.00
2018,03,08,00,50,4.00
2018,03,08,00,51,4.00
2018,03,08,00,52,3.90
2018,03,08,00,53,3.90
2018,03,08,00,54,3.90
2018,03,08,00,55,3.90
2018,03,08,00,56,3.80
2018,03,08,00,57,3.80
2018,03,08,00,58,3.80
2018,03,08,00,59,3.80
2018,03,08,01,00,3.80
2018,03,08,01,01,3.80
2018,03,08,01,02,3.80
2018,03,08,01,03,3.80
2018,03,08,01,04,3.80
2018,03,08,01,05,3.80
2018,03,08,01,06,3.80
2018,03,08,01,07,3.80
2018,03,08,01,08,3.80
2018,03,08,01,09,3.80
2018,03,08,01,10,3.80
2018,03,08,01,11,3.80
2018,03,08,01,12,3.80
2018,03,08,01,13,3.80
2018,03,08,01,14,3.80
2018,03,08,01,15,3.80
2018,03,08,01,16,3.80
2018,03,08,01,17,3.80
2018,03,08,01,18,3.80
2018,03,08,01,19,3.80
2018,03,08,01,20,3.80
2018,03,08,01,21,3.80
2018,03,08,01,22,3.80
2018,03,08,01,23,3.80
2018,03,08,01,24,3.80
2018,03,08,01,25,3.80
2018,03,08,01,26,3.80
2018,03,08,01,27,3.80
2018,03,08,01,28,3.80
2018,03,08,01,29,3.80
2018,03,08,01,30,3.80
2018,03,08,01,31,3.70
2018,03,08,01,32,3.70
2018,03,08,01,33,3.70
2018,03,08,01,34,3.70
2018,03,08,01,35,3.70
2018,03,08,01,36,3.70
2018,03,08,01,37,3.70
2018,03,08,01,38,3.70
2018,03,08,01,39,3.70
2018,03,08,01,40,3.70
2018,03,08,01,41,3.70
2018,03,08,01,42,3.70
2018,03,08,01,43,3.70
2018,03,08,01,44,3.70
2018,03,08,01,45,3.70
2018,03,08,01,46,3.70
2018,03,08,01,47,3.60
2018,03,08,01,48,3.60
2018,03,08,01,49,3.60
2018,03,08,01,50,3.60
2018,03,08,01,51,3.60
2018,03,08,01,52,3.60
2018,03,08,01,53,3.60
2018,03,08,01,54,3.60
2018,03,08,01,55,3.60
2018,03,08,01,56,3.60
2018,03,08,01,57,3.60
2018,03,08,01,58,3.60
2018,03,08,01,59,3.50
2018,03,08,02,00,3.50
2018,03,08,02,01,3.50
2018,03,08,02,02,3.50
2018,03,08,02,03,3.50
2018,03,08,02,04,3.50
2018,03,08,02,05,3.50
2018,03,08,02,06,3.50
2018,03,08,02,07,3.50
2018,03,08,02,08,3.50
2018,03,08,02,09,3.40
2018,03,08,02,10,3.40
2018,03,08,02,11,3.40
2018,03,08,02,12,3.50
2018,03,08,02,13,3.50
2018,03,08,02,14,3.50
2018,03,08,02,15,3.50
2018,03,08,02,16,3.50
2018,03,08,02,17,3.50
2018,03,08,02,18,3.50
2018,03,08,02,19,3.40
2018,03,08,02,20,3.40
2018,03,08,02,21,3.40
2018,03,08,02,22,3.40
2018,03,08,02,23,3.40
2018,03,08,02,24,3.40
2018,03,08,02,25,3.40
2018,03,08,02,26,3.40
2018,03,08,02,27,3.40
2018,03,08,02,28,3.40
2018,03,08,02,29,3.40
2018,03,08,02,30,3.40
2018,03,08,02,31,3.40
2018,03,08,02,32,3.40
2018,03,08,02,33,3.40
2018,03,08,02,34,3.40
2018,03,08,02,35,3.40
2018,03,08,02,36,3.40
2018,03,08,02,37,3.40
2018,03,08,02,38,3.40
2018,03,08,02,39,3.40
2018,03,08,02,40,3.40
2018,03,08,02,41,3.40
2018,03,08,02,42,3.40
2018,03,08,02,43,3.40
2018,03,08,02,44,3.40
2018,03,08,02,45,3.40
2018,03,08,02,46,3.40
2018,03,08,02,47,3.40
2018,03,08,02,48,3.40
2018,03,08,02,49,3.40
2018,03,08,02,50,3.40
2018,03,08,02,51,3.40
2018,03,08,02,52,3.40
2018,03,08,02,53,3.40
2018,03,08,02,54,3.40
2018,03,08,02,55,3.40
2018,03,08,02,56,3.40
2018,03,08,02,57,3.40
2018,03,08,02,58,3.40
2018,03,08,02,59,3.40
2018,03,08,03,00,3.40
2018,03,08,03,01,3.40
2018,03,08,03,02,3.40
2018,03,08,03,03,3.40
2018,03,08,03,04,3.40
2018,03,08,03,05,3.40
2018,03,08,03,06,3.40
2018,03,08,03,07,3.40
2018,03,08,03,08,3.40
2018,03,08,03,09,3.40
2018,03,08,03,10,3.40
2018,03,08,03,11,3.40
2018,03,08,03,12,3.40
2018,03,08,03,13,3.40
2018,03,08,03,14,3.40
2018,03,08,03,15,3.40
2018,03,08,03,16,3.40
2018,03,08,03,17,3.40
2018,03,08,03,18,3.40
2018,03,08,03,19,3.30
2018,03,08,03,20,3.30
2018,03,08,03,21,3.30
2018,03,08,03,22,3.40
2018,03,08,03,23,3.40
2018,03,08,03,24,3.40
2018,03,08,03,25,3.40
2018,03,08,03,26,3.40
2018,03,08,03,27,3.40
2018,03,08,03,28,3.40
2018,03,08,03,29,3.40
2018,03,08,03,30,3.40
2018,03,08,03,31,3.40
2018,03,08,03,32,3.30
2018,03,08,03,33,3.30
2018,03,08,03,34,3.30
2018,03,08,03,35,3.30
2018,03,08,03,36,3.30
2018,03,08,03,37,3.30
2018,03,08,03,38,3.30
2018,03,08,03,39,3.30
2018,03,08,03,40,3.30
2018,03,08,03,41,3.30
2018,03,08,03,42,3.30
2018,03,08,03,43,3.20
2018,03,08,03,44,3.20
2018,03,08,03,45,3.20
2018,03,08,03,46,3.20
2018,03,08,03,47,3.20
2018,03,08,03,48,3.20
2018,03,08,03,49,3.20
2018,03,08,03,50,3.10
2018,03,08,03,51,3.10
2018,03,08,03,52,3.10
2018,03,08,03,53,3.10
2018,03,08,03,54,3.10
2018,03,08,03,55,3.10
2018,03,08,03,56,3.10
2018,03,08,03,57,3.10
2018,03,08,03,58,3.10
2018,03,08,03,59,3.10
2018,03,08,04,00,3.10
2018,03,08,04,01,3.10
2018,03,08,04,02,3.10
2018,03,08,04,03,3.10
2018,03,08,04,04,3.10
2018,03,08,04,05,3.10
2018,03,08,04,06,3.10
2018,03,08,04,07,3.10
2018,03,08,04,08,3.10
2018,03,08,04,09,3.10
2018,03,08,04,10,3.10
2018,03,08,04,11,3.10
2018,03,08,04,12,3.10
2018,03,08,04,13,3.10
2018,03,08,04,14,3.10
2018,03,08,04,15,3.10
2018,03,08,04,16,3.10
2018,03,08,04,17,3.10
2018,03,08,04,18,3.10
2018,03,08,04,19,3.10
2018,03,08,04,20,3.10
2018,03,08,04,21,3.10
2018,03,08,04,22,3.10
2018,03,08,04,23,3.10
2018,03,08,04,24,3.10
2018,03,08,04,25,3.10
2018,03,08,04,26,3.10
2018,03,08,04,27,3.10
2018,03,08,04,28,3.10
2018,03,08,04,29,3.10
2018,03,08,04,30,3.10
2018,03,08,04,31,3.10
2018,03,08,04,32,3.10
2018,03,08,04,33,3.10
2018,03,08,04,34,3.10
2018,03,08,04,35,3.10
2018,03,08,04,36,3.10
2018,03,08,04,37,3.10
2018,03,08,04,38,3.10
2018,03,08,04,39,3.10
2018,03,08,04,40,3.10
2018,03,08,04,41,3.10
2018,03,08,04,42,3.10
2018,03,08,04,43,3.10
2018,03,08,04,44,3.10
2018,03,08,04,45,3.10
2018,03,08,04,46,3.10
2018,03,08,04,47,3.10
2018,03,08,04,48,3.10
2018,03,08,04,49,3.10
2018,03,08,04,50,3.10
2018,03,08,04,51,3.10
2018,03,08,04,52,3.10
2018,03,08,04,53,3.10
2018,03,08,04,54,3.10
2018,03,08,04,55,3.10
2018,03,08,04,56,3.10
2018,03,08,04,57,3.10
2018,03,08,04,58,3.10
2018,03,08,04,59,3.00
2018,03,08,05,00,3.00
2018,03,08,05,01,3.00
2018,03,08,05,02,3.00
2018,03,08,05,03,3.00
2018,03,08,05,04,3.00
2018,03,08,05,05,3.00
2018,03,08,05,06,3.00
2018,03,08,05,07,3.00
2018,03,08,05,08,3.00
2018,03,08,05,09,3.00
2018,03,08,05,10,3.00
2018,03,08,05,11,3.00
2018,03,08,05,12,2.90
2018,03,08,05,13,2.90
2018,03,08,05,14,2.90
2018,03,08,05,15,2.90
2018,03,08,05,16,2.90
2018,03,08,05,17,2.90
2018,03,08,05,18,2.90
2018,03,08,05,19,2.90
2018,03,08,05,20,2.90
2018,03,08,05,21,2.90
2018,03,08,05,22,2.90
2018,03,08,05,23,2.80
2018,03,08,05,24,2.90
2018,03,08,05,25,2.90
2018,03,08,05,26,2.90
2018,03,08,05,27,2.90
2018,03,08,05,28,2.90
2018,03,08,05,29,2.90
2018,03,08,05,30,2.90
2018,03,08,05,31,2.90
2018,03,08,05,32,2.80
2018,03,08,05,33,2.80
2018,03,08,05,34,2.80
2018,03,08,05,35,2.80
2018,03,08,05,36,2.80
2018,03,08,05,37,2.80
2018,03,08,05,38,2.80
2018,03,08,05,39,2.80
2018,03,08,05,40,2.80
2018,03,08,05,41,2.80
2018,03,08,05,42,2.80
2018,03,08,05,43,2.80
2018,03,08,05,44,2.80
2018,03,08,05,45,2.80
2018,03,08,05,46,2.80
2018,03,08,05,47,2.80
2018,03,08,05,48,2.80
2018,03,08,05,49,2.80
2018,03,08,05,50,2.80
2018,03,08,05,51,2.80
2018,03,08,05,52,2.80
2018,03,08,05,53,2.80
2018,03,08,05,54,2.80
2018,03,08,05,55,2.80
2018,03,08,05,56,2.80
2018,03,08,05,57,2.80
2018,03,08,05,58,2.80
2018,03,08,05,59,2.80
2018,03,08,06,00,2.80
2018,03,08,06,01,2.80
2018,03,08,06,02,2.80
2018,03,08,06,03,2.80
2018,03,08,06,04,2.70
2018,03,08,06,05,2.70
2018,03,08,06,06,2.70
2018,03,08,06,07,2.70
2018,03,08,06,08,2.70
2018,03,08,06,09,2.70
2018,03,08,06,10,2.70
2018,03,08,06,11,2.70
2018,03,08,06,12,2.60
2018,03,08,06,13,2.60
2018,03,08,06,14,2.60
2018,03,08,06,15,2.60
2018,03,08,06,16,2.60
2018,03,08,06,17,2.60
2018,03,08,06,18,2.60
2018,03,08,06,19,2.60
2018,03,08,06,20,2.60
2018,03,08,06,21,2.60
2018,03,08,06,22,2.60
2018,03,08,06,23,2.60
2018,03,08,06,24,2.60
2018,03,08,06,25,2.50
2018,03,08,06,26,2.50
2018,03,08,06,27,2.50
2018,03,08,06,28,2.50
2018,03,08,06,29,2.50
2018,03,08,06,30,2.50
2018,03,08,06,31,2.50
2018,03,08,06,32,2.50
2018,03,08,06,33,2.50
2018,03,08,06,34,2.50
2018,03,08,06,35,2.50
2018,03,08,06,36,2.50
2018,03,08,06,37,2.50
2018,03,08,06,38,2.50
2018,03,08,06,39,2.50
2018,03,08,06,40,2.40
2018,03,08,06,41,2.40
2018,03,08,06,42,2.40
2018,03,08,06,43,2.40
2018,03,08,06,44,2.40
2018,03,08,06,45,2.40
2018,03,08,06,46,2.40
2018,03,08,06,47,2.40
2018,03,08,06,48,2.40
2018,03,08,06,49,2.40
2018,03,08,06,50,2.40
2018,03,08,06,51,2.40
2018,03,08,06,52,2.40
2018,03,08,06,53,2.40
2018,03,08,06,54,2.40
2018,03,08,06,55,2.40
2018,03,08,06,56,2.40
2018,03,08,06,57,2.40
2018,03,08,06,58,2.40
2018,03,08,06,59,2.40
2018,03,08,07,00,2.40
2018,03,08,07,01,2.40
2018,03,08,07,02,2.40
2018,03,08,07,03,2.40
2018,03,08,07,04,2.40
2018,03,08,07,05,2.40
2018,03,08,07,06,2.40
2018,03,08,07,07,2.40
2018,03,08,07,08,2.40
2018,03,08,07,09,2.40
2018,03,08,07,10,2.40
2018,03,08,07,11,2.40
2018,03,08,07,12,2.40
2018,03,08,07,13,2.40
2018,03,08,07,14,2.40
2018,03,08,07,15,2.40
2018,03,08,07,16,2.40
2018,03,08,07,17,2.40
2018,03,08,07,18,2.40
2018,03,08,07,19,2.40
2018,03,08,07,20,2.40
2018,03,08,07,21,2.40
2018,03,08,07,22,2.40
2018,03,08,07,23,2.40
2018,03,08,07,24,2.40
2018,03,08,07,25,2.40
2018,03,08,07,26,2.40
2018,03,08,07,27,2.40
2018,03,08,07,28,2.40
2018,03,08,07,29,2.40
2018,03,08,07,30,2.40
2018,03,08,07,31,2.40
2018,03,08,07,32,2.40
2018,03,08,07,33,2.50
2018,03,08,07,34,2.40
2018,03,08,07,35,2.50
2018,03,08,07,36,2.50
2018,03,08,07,37,2.50
2018,03,08,07,38,2.50
2018,03,08,07,39,2.50
2018,03,08,07,40,2.50
2018,03,08,07,41,2.50
2018,03,08,07,42,2.60
2018,03,08,07,43,2.60
2018,03,08,07,44,2.60
2018,03,08,07,45,2.60
2018,03,08,07,46,2.60
2018,03,08,07,47,2.60
2018,03,08,07,48,2.60
2018,03,08,07,49,2.60
2018,03,08,07,50,2.60
2018,03,08,07,51,2.60
2018,03,08,07,52,2.60
2018,03,08,07,53,2.60
2018,03,08,07,54,2.60
2018,03,08,07,55,2.60
2018,03,08,07,56,2.70
2018,03,08,07,57,2.70
2018,03,08,07,58,2.70
2018,03,08,07,59,2.70
2018,03,08,08,00,2.70
2018,03,08,08,01,2.70
2018,03,08,08,02,2.70
2018,03,08,08,03,2.70
2018,03,08,08,04,2.70
2018,03,08,08,05,2.70
2018,03,08,08,06,2.70
2018,03,08,08,07,2.70
2018,03,08,08,08,2.70
2018,03,08,08,09,2.70
2018,03,08,08,10,2.70
2018,03,08,08,11,2.70
2018,03,08,08,12,2.70
2018,03,08,08,13,2.70
2018,03,08,08,14,2.70
2018,03,08,08,15,2.70
2018,03,08,08,16,2.80
2018,03,08,08,17,2.80
2018,03,08,08,18,2.80
2018,03,08,08,19,2.80
2018,03,08,08,20,2.80
2018,03,08,08,21,2.80
2018,03,08,08,22,2.80
2018,03,08,08,23,2.80
2018,03,08,08,24,2.80
2018,03,08,08,25,2.80
2018,03,08,08,26,2.80
2018,03,08,08,27,2.90
2018,03,08,08,28,2.90
2018,03,08,08,29,2.90
2018,03,08,08,30,2.90
2018,03,08,08,31,2.90
2018,03,08,08,32,2.90
2018,03,08,08,33,2.90
2018,03,08,08,34,2.90
2018,03,08,08,35,2.90
2018,03,08,08,36,2.90
2018,03,08,08,37,2.90
2018,03,08,08,38,2.90
2018,03,08,08,39,3.00
2018,03,08,08,40,3.00
2018,03,08,08,41,3.00
2018,03,08,08,42,3.00
2018,03,08,08,43,3.00
2018,03,08,08,44,3.10
2018,03,08,08,45,3.10
2018,03,08,08,46,3.10
2018,03,08,08,47,3.10
2018,03,08,08,48,3.10
2018,03,08,08,49,3.10
2018,03,08,08,50,3.20
2018,03,08,08,51,3.20
2018,03,08,08,52,3.20
2018,03,08,08,53,3.20
2018,03,08,08,54,3.20
2018,03,08,08,55,3.20
2018,03,08,08,56,3.20
2018,03,08,08,57,3.20
2018,03,08,08,58,3.20
2018,03,08,08,59,3.20
2018,03,08,09,00,3.30
2018,03,08,09,01,3.30
2018,03,08,09,02,3.20
2018,03,08,09,03,3.20
2018,03,08,09,04,3.20
2018,03,08,09,05,3.20
2018,03,08,09,06,3.20
2018,03,08,09,07,3.20
2018,03,08,09,08,3.20
2018,03,08,09,09,3.20
2018,03,08,09,10,3.20
2018,03,08,09,11,3.20
2018,03,08,09,12,3.20
2018,03,08,09,13,3.20
2018,03,08,09,14,3.20
2018,03,08,09,15,3.20
2018,03,08,09,16,3.20
2018,03,08,09,17,3.20
2018,03,08,09,18,3.20
2018,03,08,09,19,3.20
2018,03,08,09,20,3.20
2018,03,08,09,21,3.20
2018,03,08,09,22,3.20
2018,03,08,09,23,3.20
2018,03,08,09,24,3.20
2018,03,08,09,25,3.20
2018,03,08,09,26,3.30
2018,03,08,09,27,3.30
2018,03,08,09,28,3.30
2018,03,08,09,29,3.30
2018,03,08,09,30,3.30
2018,03,08,09,31,3.30
2018,03,08,09,32,3.40
2018,03,08,09,33,3.40
2018,03,08,09,34,3.40
2018,03,08,09,35,3.40
2018,03,08,09,36,3.40
2018,03,08,09,37,3.40
2018,03,08,09,38,3.40
2018,03,08,09,39,3.40
2018,03,08,09,40,3.50
2018,03,08,09,41,3.50
2018,03,08,09,42,3.50
2018,03,08,09,43,3.50
2018,03,08,09,44,3.60
2018,03,08,09,45,3.60
2018,03,08,09,46,3.60
2018,03,08,09,47,3.60
2018,03,08,09,48,3.60
2018,03,08,09,49,3.60
2018,03,08,09,50,3.60
2018,03,08,09,51,3.70
2018,03,08,09,52,3.70
2018,03,08,09,53,3.70
2018,03,08,09,54,3.70
2018,03,08,09,55,3.70
2018,03,08,09,56,3.70
2018,03,08,09,57,3.70
2018,03,08,09,58,3.70
2018,03,08,09,59,3.70
2018,03,08,10,00,3.80
2018,03,08,10,01,3.80
2018,03,08,10,02,3.80
2018,03,08,10,03,3.80
2018,03,08,10,04,3.80
2018,03,08,10,05,3.80
2018,03,08,10,06,3.80
2018,03,08,10,07,3.80
2018,03,08,10,08,3.80
2018,03,08,10,09,3.80
2018,03,08,10,10,3.80
2018,03,08,10,11,3.80
2018,03,08,10,12,3.80
2018,03,08,10,13,3.80
2018,03,08,10,14,3.80
2018,03,08,10,15,3.80
2018,03,08,10,16,3.80
2018,03,08,10,17,3.80
2018,03,08,10,18,3.80
2018,03,08,10,19,3.80
2018,03,08,10,20,3.80
2018,03,08,10,21,3.80
2018,03,08,10,22,3.80
2018,03,08,10,23,3.80
2018,03,08,10,24,3.80
2018,03,08,10,25,3.80
2018,03,08,10,26,3.80
2018,03,08,10,27,3.80
2018,03,08,10,28,3.90
2018,03,08,10,29,3.90
2018,03,08,10,30,3.90
2018,03,08,10,31,3.90
2018,03,08,10,32,3.90
2018,03,08,10,33,3.90
2018,03,08,10,34,3.90
2018,03,08,10,35,3.90
2018,03,08,10,36,3.90
2018,03,08,10,37,3.90
2018,03,08,10,38,3.90
2018,03,08,10,39,3.90
2018,03,08,10,40,4.00
2018,03,08,10,41,4.00
2018,03,08,10,42,4.00
2018,03,08,10,43,4.00
2018,03,08,10,44,4.00
2018,03,08,10,45,4.00
2018,03,08,10,46,4.00
2018,03,08,10,47,4.00
2018,03,08,10,48,4.00
2018,03,08,10,49,4.00
2018,03,08,10,50,4.00
2018,03,08,10,51,4.10
2018,03,08,10,52,4.10
2018,03,08,10,53,4.10
2018,03,08,10,54,4.10
2018,03,08,10,55,4.10
2018,03,08,10,56,4.10
2018,03,08,10,57,4.10
2018,03,08,10,58,4.10
2018,03,08,10,59,4.10
2018,03,08,11,00,4.10
2018,03,08,11,01,4.10
2018,03,08,11,02,4.10
2018,03,08,11,03,4.10
2018,03,08,11,04,4.10
2018,03,08,11,05,4.10
2018,03,08,11,06,4.10
2018,03,08,11,07,4.10
2018,03,08,11,08,4.10
2018,03,08,11,09,4.10
2018,03,08,11,10,4.10
2018,03,08,11,11,4.10
2018,03,08,11,12,4.10
2018,03,08,11,13,4.10
2018,03,08,11,14,4.10
2018,03,08,11,15,4.10
2018,03,08,11,16,4.10
2018,03,08,11,17,4.10
2018,03,08,11,18,4.10
2018,03,08,11,19,4.10
2018,03,08,11,20,4.20
2018,03,08,11,21,4.20
2018,03,08,11,22,4.20
2018,03,08,11,23,4.10
2018,03,08,11,24,4.10
2018,03,08,11,25,4.10
2018,03,08,11,26,4.20
2018,03,08,11,27,4.20
2018,03,08,11,28,4.20
2018,03,08,11,29,4.20
2018,03,08,11,30,4.20
2018,03,08,11,31,4.20
2018,03,08,11,32,4.20
2018,03,08,11,33,4.20
2018,03,08,11,34,4.30
2018,03,08,11,35,4.30
2018,03,08,11,36,4.30
2018,03,08,11,37,4.30
2018,03,08,11,38,4.30
2018,03,08,11,39,4.30
2018,03,08,11,40,4.30
2018,03,08,11,41,4.30
2018,03,08,11,42,4.30
2018,03,08,11,43,4.30
2018,03,08,11,44,4.30
2018,03,08,11,45,4.30
2018,03,08,11,46,4.30
2018,03,08,11,47,4.30
2018,03,08,11,48,4.30
2018,03,08,11,49,4.30
2018,03,08,11,50,4.30
2018,03,08,11,51,4.30
2018,03,08,11,52,4.40
2018,03,08,11,53,4.40
2018,03,08,11,54,4.40
2018,03,08,11,55,4.40
2018,03,08,11,56,4.40
2018,03,08,11,57,4.40
2018,03,08,11,58,4.40
2018,03,08,11,59,4.40
2018,03,08,12,00,4.50
2018,03,08,12,01,4.60
2018,03,08,12,02,4.60
2018,03,08,12,03,4.60
2018,03,08,12,04,4.60
2018,03,08,12,05,4.60
2018,03,08,12,06,4.50
2018,03,08,12,07,4.50
2018,03,08,12,08,4.60
2018,03,08,12,09,4.60
2018,03,08,12,10,4.60
2018,03,08,12,11,4.60
2018,03,08,12,12,4.60
2018,03,08,12,13,4.60
2018,03,08,12,14,4.60
2018,03,08,12,15,4.60
2018,03,08,12,16,4.60
2018,03,08,12,17,4.60
2018,03,08,12,18,4.70
2018,03,08,12,19,4.70
2018,03,08,12,20,4.70
2018,03,08,12,21,4.60
2018,03,08,12,22,4.60
2018,03,08,12,23,4.60
2018,03,08,12,24,4.60
2018,03,08,12,25,4.70
2018,03,08,12,26,4.60
2018,03,08,12,27,4.60
2018,03,08,12,28,4.60
2018,03,08,12,29,4.60
2018,03,08,12,30,4.60
2018,03,08,12,31,4.60
2018,03,08,12,32,4.60
2018,03,08,12,33,4.60
2018,03,08,12,34,4.60
2018,03,08,12,35,4.60
2018,03,08,12,36,4.70
2018,03,08,12,37,4.70
2018,03,08,12,38,4.70
2018,03,08,12,39,4.70
2018,03,08,12,40,4.70
2018,03,08,12,41,4.70
2018,03,08,12,42,4.70
2018,03,08,12,43,4.70
2018,03,08,12,44,4.80
2018,03,08,12,45,4.80
2018,03,08,12,46,4.80
2018,03,08,12,47,4.80
2018,03,08,12,48,4.80
2018,03,08,12,49,4.80
2018,03,08,12,50,4.80
2018,03,08,12,51,4.80
2018,03,08,12,52,4.90
2018,03,08,12,53,4.90
2018,03,08,12,54,4.80
2018,03,08,12,55,4.80
2018,03,08,12,56,4.80
2018,03,08,12,57,4.80
2018,03,08,12,58,4.80
2018,03,08,12,59,4.80
2018,03,08,13,00,4.90
2018,03,08,13,01,4.90
2018,03,08,13,02,4.90
2018,03,08,13,03,4.80
2018,03,08,13,04,4.80
2018,03,08,13,05,4.70
2018,03,08,13,06,4.70
2018,03,08,13,07,4.70
2018,03,08,13,08,4.70
2018,03,08,13,09,4.70
2018,03,08,13,10,4.70
2018,03,08,13,11,4.70
2018,03,08,13,12,4.70
2018,03,08,13,13,4.70
2018,03,08,13,14,4.70
2018,03,08,13,15,4.70
2018,03,08,13,16,4.70
2018,03,08,13,17,4.70
2018,03,08,13,18,4.70
2018,03,08,13,19,4.70
2018,03,08,13,20,4.70
2018,03,08,13,21,4.80
2018,03,08,13,22,4.80
2018,03,08,13,23,4.70
2018,03,08,13,24,4.80
2018,03,08,13,25,4.80
2018,03,08,13,26,4.80
2018,03,08,13,27,4.80
2018,03,08,13,28,4.80
2018,03,08,13,29,4.80
2018,03,08,13,30,4.80
2018,03,08,13,31,4.80
2018,03,08,13,32,4.80
2018,03,08,13,33,4.80
2018,03,08,13,34,4.80
2018,03,08,13,35,4.80
2018,03,08,13,36,4.90
2018,03,08,13,37,4.90
2018,03,08,13,38,4.90
2018,03,08,13,39,4.90
2018,03,08,13,40,4.90
2018,03,08,13,41,4.90
2018,03,08,13,42,4.90
2018,03,08,13,43,4.90
2018,03,08,13,44,4.90
2018,03,08,13,45,4.90
2018,03,08,13,46,4.80
2018,03,08,13,47,4.90
2018,03,08,13,48,4.90
2018,03,08,13,49,4.90
2018,03,08,13,50,5.00
2018,03,08,13,51,5.00
2018,03,08,13,52,5.00
2018,03,08,13,53,5.00
2018,03,08,13,54,5.00
2018,03,08,13,55,5.00
2018,03,08,13,56,5.00
2018,03,08,13,57,5.00
2018,03,08,13,58,5.00
2018,03,08,13,59,5.00
2018,03,08,14,00,4.90
2018,03,08,14,01,4.90
2018,03,08,14,02,4.90
2018,03,08,14,03,4.90
2018,03,08,14,04,4.90
2018,03,08,14,05,4.90
2018,03,08,14,06,4.90
2018,03,08,14,07,4.90
2018,03,08,14,08,4.90
2018,03,08,14,09,4.90
2018,03,08,14,10,4.90
2018,03,08,14,11,4.90
2018,03,08,14,12,4.90
2018,03,08,14,13,4.90
2018,03,08,14,14,4.90
2018,03,08,14,15,4.90
2018,03,08,14,16,4.90
2018,03,08,14,17,4.90
2018,03,08,14,18,4.90
2018,03,08,14,19,4.90
2018,03,08,14,20,4.90
2018,03,08,14,21,5.00
2018,03,08,14,22,5.00
2018,03,08,14,23,5.00
2018,03,08,14,24,5.00
2018,03,08,14,25,5.00
2018,03,08,14,26,5.00
2018,03,08,14,27,5.00
2018,03,08,14,28,5.00
2018,03,08,14,29,4.90
2018,03,08,14,30,4.90
2018,03,08,14,31,4.90
2018,03,08,14,32,4.90
2018,03,08,14,33,5.00
2018,03,08,14,34,5.00
2018,03,08,14,35,5.00
2018,03,08,14,36,5.00
2018,03,08,14,37,5.00
2018,03,08,14,38,5.00
2018,03,08,14,39,5.00
2018,03,08,14,40,5.00
2018,03,08,14,41,5.00
2018,03,08,14,42,5.10
2018,03,08,14,43,5.10
2018,03,08,14,44,5.10
2018,03,08,14,45,5.10
2018,03,08,14,46,5.10
2018,03,08,14,47,5.10
2018,03,08,14,48,5.10
2018,03,08,14,49,5.10
2018,03,08,14,50,5.10
2018,03,08,14,51,5.00
2018,03,08,14,52,5.00
2018,03,08,14,53,5.00
2018,03,08,14,54,5.10
2018,03,08,14,55,5.10
2018,03,08,14,56,5.10
2018,03,08,14,57,5.10
2018,03,08,14,58,5.10
2018,03,08,14,59,5.10
2018,03,08,15,00,5.10
2018,03,08,15,01,5.10
2018,03,08,15,02,5.10
2018,03,08,15,03,5.10
2018,03,08,15,04,5.10
2018,03,08,15,05,5.10
2018,03,08,15,06,5.10
2018,03,08,15,07,5.10
2018,03,08,15,08,5.10
2018,03,08,15,09,5.10
2018,03,08,15,10,5.10
2018,03,08,15,11,5.10
2018,03,08,15,12,5.10
2018,03,08,15,13,5.10
2018,03,08,15,14,5.10
2018,03,08,15,15,5.10
2018,03,08,15,16,5.10
2018,03,08,15,17,5.10
2018,03,08,15,18,5.10
2018,03,08,15,19,5.10
2018,03,08,15,20,5.10
2018,03,08,15,21,5.20
2018,03,08,15,22,5.20
2018,03,08,15,23,5.20
2018,03,08,15,24,5.20
2018,03,08,15,25,5.20
2018,03,08,15,26,5.20
2018,03,08,15,27,5.20
2018,03,08,15,28,5.20
2018,03,08,15,29,5.10
2018,03,08,15,30,5.10
2018,03,08,15,31,5.10
2018,03,08,15,32,5.10
2018,03,08,15,33,5.10
2018,03,08,15,34,5.10
2018,03,08,15,35,5.10
2018,03,08,15,36,5.10
2018,03,08,15,37,5.10
2018,03,08,15,38,5.10
2018,03,08,15,39,5.10
2018,03,08,15,40,5.10
2018,03,08,15,41,5.00
2018,03,08,15,42,5.00
2018,03,08,15,43,5.00
2018,03,08,15,44,5.00
2018,03,08,15,45,5.00
2018,03,08,15,46,5.00
2018,03,08,15,47,5.00
2018,03,08,15,48,5.00
2018,03,08,15,49,5.00
2018,03,08,15,50,5.00
2018,03,08,15,51,5.00
2018,03,08,15,52,5.00
2018,03,08,15,53,5.00
2018,03,08,15,54,5.00
2018,03,08,15,55,5.00
2018,03,08,15,56,5.00
2018,03,08,15,57,5.00
2018,03,08,15,58,5.00
2018,03,08,15,59,5.00
2018,03,08,16,00,4.90
2018,03,08,16,01,4.90
2018,03,08,16,02,4.90
2018,03,08,16,03,4.90
2018,03,08,16,04,4.90
2018,03,08,16,05,4.90
2018,03,08,16,06,4.90
2018,03,08,16,07,4.90
2018,03,08,16,08,4.90
2018,03,08,16,09,4.90
2018,03,08,16,10,4.90
2018,03,08,16,11,4.90
2018,03,08,16,12,4.90
2018,03,08,16,13,4.90
2018,03,08,16,14,4.90
2018,03,08,16,15,4.90
2018,03,08,16,16,4.90
2018,03,08,16,17,4.90
2018,03,08,16,18,4.90
2018,03,08,16,19,4.90
2018,03,08,16,20,4.90
2018,03,08,16,21,4.90
2018,03,08,16,22,4.90
2018,03,08,16,23,4.90
2018,03,08,16,24,4.90
2018,03,08,16,25,4.90
2018,03,08,16,26,4.90
2018,03,08,16,27,4.90
2018,03,08,16,28,4.90
2018,03,08,16,29,4.90
2018,03,08,16,30,4.90
2018,03,08,16,31,5.00
2018,03,08,16,32,5.00
2018,03,08,16,33,5.00
2018,03,08,16,34,5.00
2018,03,08,16,35,5.00
2018,03,08,16,36,5.00
2018,03,08,16,37,5.00
2018,03,08,16,38,5.00
2018,03,08,16,39,5.00
2018,03,08,16,40,5.00
2018,03,08,16,41,5.00
2018,03,08,16,42,5.00
2018,03,08,16,43,5.00
2018,03,08,16,44,5.00
2018,03,08,16,45,4.90
2018,03,08,16,46,4.90
2018,03,08,16,47,4.90
2018,03,08,16,48,4.90
2018,03,08,16,49,4.90
2018,03,08,16,50,4.90
2018,03,08,16,51,4.90
2018,03,08,16,52,4.90
2018,03,08,16,53,4.90
2018,03,08,16,54,4.90
2018,03,08,16,55,4.90
2018,03,08,16,56,4.90
2018,03,08,16,57,4.90
2018,03,08,16,58,4.90
2018,03,08,16,59,4.90
2018,03,08,17,00,4.90
2018,03,08,17,01,4.90
2018,03,08,17,02,4.90
2018,03,08,17,03,4.90
2018,03,08,17,04,4.90
2018,03,08,17,05,4.90
2018,03,08,17,06,4.90
2018,03,08,17,07,4.90
2018,03,08,17,08,4.90
2018,03,08,17,09,4.90
2018,03,08,17,10,4.90
2018,03,08,17,11,4.90
2018,03,08,17,12,4.90
2018,03,08,17,13,4.90
2018,03,08,17,14,4.90
2018,03,08,17,15,4.90
2018,03,08,17,16,4.90
2018,03,08,17,17,4.90
2018,03,08,17,18,4.90
2018,03,08,17,19,4.90
2018,03,08,17,20,4.90
2018,03,08,17,21,4.90
2018,03,08,17,22,4.80
2018,03,08,17,23,4.80
2018,03,08,17,24,4.80
2018,03,08,17,25,4.80
2018,03,08,17,26,4.80
2018,03,08,17,27,4.80
2018,03,08,17,28,4.80
2018,03,08,17,29,4.80
2018,03,08,17,30,4.80
2018,03,08,17,31,4.80
2018,03,08,17,32,4.70
2018,03,08,17,33,4.70
2018,03,08,17,34,4.70
2018,03,08,17,35,4.70
2018,03,08,17,36,4.70
2018,03,08,17,37,4.70
2018,03,08,17,38,4.70
2018,03,08,17,39,4.70
2018,03,08,17,40,4.70
2018,03,08,17,41,4.70
2018,03,08,17,42,4.70
2018,03,08,17,43,4.70
2018,03,08,17,44,4.70
2018,03,08,17,45,4.70
2018,03,08,17,46,4.70
2018,03,08,17,47,4.70
2018,03,08,17,48,4.70
2018,03,08,17,49,4.70
2018,03,08,17,50,4.70
2018,03,08,17,51,4.70
2018,03,08,17,52,4.70
2018,03,08,17,53,4.70
2018,03,08,17,54,4.70
2018,03,08,17,55,4.70
2018,03,08,17,56,4.70
2018,03,08,17,57,4.70
2018,03,08,17,58,4.70
2018,03,08,17,59,4.70
2018,03,08,18,00,4.70
2018,03,08,18,01,4.70
2018,03,08,18,02,4.70
2018,03,08,18,03,4.60
2018,03,08,18,04,4.60
2018,03,08,18,05,4.60
2018,03,08,18,06,4.60